Time,TemperatureF,DewpointF,PressureIn,WindDirection,WindDirectionDegrees,WindSpeedMPH,WindSpeedGustMPH,Humidity,HourlyPrecipIn,Conditions,Clouds,dailyrainin,SolarRadiationWatts/m^2,SoftwareType,DateUTC
2015-05-28 00:00:00,54.9,51.4,-100.00,SSW,201,2.9,5.6,88,0.00,,,-99.99,1.0,HOBO +U30 +Weather +,2015-05-28 06:00:00,
2015-05-28 00:05:00,54.4,50.8,-100.00,SSW,206,4.0,6.3,87,0.00,,,-99.99,1.0,HOBO +U30 +Weather +,2015-05-28 06:05:00,
2015-05-28 00:10:00,54.6,51.0,-100.00,SW,225,1.8,3.4,87,0.00,,,-99.99,1.0,HOBO +U30 +Weather +,2015-05-28 06:10:00,
2015-05-28 00:15:00,54.3,50.9,-100.00,SW,230,0.7,2.2,88,0.00,,,-99.99,1.0,HOBO +U30 +Weather +,2015-05-28 06:15:00,
2015-05-28 00:25:00,54.2,50.7,-100.00,SW,230,0.7,2.2,88,0.00,,,-99.99,1.0,HOBO +U30 +Weather +,2015-05-28 06:25:00,
2015-05-28 00:30:00,53.5,50.0,-100.00,SSW,194,4.0,5.6,87,0.00,,,-99.99,1.0,HOBO +U30 +Weather +,2015-05-28 06:30:00,
2015-05-28 00:35:00,53.3,49.9,-100.00,SSW,192,4.0,5.6,88,0.00,,,-99.99,1.0,HOBO +U30 +Weather +,2015-05-28 06:35:00,
2015-05-28 00:40:00,53.0,49.7,-100.00,SSW,195,2.9,5.1,88,0.00,,,-99.99,1.0,HOBO +U30 +Weather +,2015-05-28 06:40:00,
2015-05-28 00:45:00,53.0,49.6,-100.00,SSW,202,3.4,5.1,88,0.00,,,-99.99,1.0,HOBO +U30 +Weather +,2015-05-28 06:45:00,
2015-05-28 00:50:00,53.1,49.6,-100.00,SSW,205,2.2,4.5,87,0.00,,,-99.99,1.0,HOBO +U30 +Weather +,2015-05-28 06:50:00,
2015-05-28 00:55:00,53.0,49.5,-100.00,SSW,205,1.1,2.9,88,0.00,,,-99.99,1.0,HOBO +U30 +Weather +,2015-05-28 06:55:00,
2015-05-28 01:00:00,53.1,49.6,-100.00,SW,225,0.7,3.4,88,0.00,,,-99.99,1.0,HOBO +U30 +Weather +,2015-05-28 07:00:00,
2015-05-28 01:05:00,53.1,50.0,-100.00,SW,234,2.2,5.1,89,0.00,,,-99.99,1.0,HOBO +U30 +Weather +,2015-05-28 07:05:00,
2015-05-28 01:10:00,53.2,49.8,-100.00,WSW,247,2.9,5.1,88,0.00,,,-99.99,1.0,HOBO +U30 +Weather +,2015-05-28 07:10:00,
2015-05-28 01:15:00,53.0,49.3,-100.00,WSW,240,0.7,4.0,87,0.00,,,-99.99,1.0,HOBO +U30 +Weather +,2015-05-28 07:15:00,
2015-05-28 01:20:00,52.7,49.2,-100.00,WSW,241,0.7,2.2,87,0.00,,,-99.99,1.0,HOBO +U30 +Weather +,2015-05-28 07:20:00,
2015-05-28 01:25:00,52.2,49.0,-100.00,South,188,1.8,3.4,89,0.00,,,-99.99,1.0,HOBO +U30 +Weather +,2015-05-28 07:25:00,
2015-05-28 01:30:00,52.3,49.2,-100.00,South,184,2.2,3.4,89,0.00,,,-99.99,1.0,HOBO +U30 +Weather +,2015-05-28 07:30:00,
2015-05-28 01:35:00,52.4,49.3,-100.00,South,188,2.2,4.5,89,0.00,,,-99.99,1.0,HOBO +U30 +Weather +,2015-05-28 07:35:00,
2015-05-28 01:40:00,52.6,49.3,-100.00,SSW,204,2.9,5.1,88,0.00,,,-99.99,1.0,HOBO +U30 +Weather +,2015-05-28 07:40:00,
2015-05-28 01:45:00,52.9,49.2,-100.00,SW,215,3.4,6.3,87,0.00,,,-99.99,1.0,HOBO +U30 +Weather +,2015-05-28 07:45:00,
2015-05-28 01:50:00,53.4,49.2,-100.00,SW,227,4.0,6.7,85,0.00,,,-99.99,1.0,HOBO +U30 +Weather +,2015-05-28 07:50:00,
2015-05-28 01:55:00,53.5,49.2,-100.00,WSW,239,4.0,6.7,85,0.00,,,-99.99,1.0,HOBO +U30 +Weather +,2015-05-28 07:55:00,
2015-05-28 02:00:00,53.0,49.1,-100.00,SSW,211,4.0,6.7,86,0.00,,,-99.99,1.0,HOBO +U30 +Weather +,2015-05-28 08:00:00,
2015-05-28 02:05:00,52.6,49.1,-100.00,SSW,209,4.5,6.3,87,0.00,,,-99.99,1.0,HOBO +U30 +Weather +,2015-05-28 08:05:00,
2015-05-28 02:10:00,52.6,49.0,-100.00,SW,219,4.0,7.8,87,0.00,,,-99.99,1.0,HOBO +U30 +Weather +,2015-05-28 08:10:00,
2015-05-28 02:15:00,52.7,48.9,-100.00,SW,227,3.4,6.7,86,0.00,,,-99.99,1.0,HOBO +U30 +Weather +,2015-05-28 08:15:00,
2015-05-28 02:25:00,52.0,48.7,-100.00,SSW,192,4.0,5.6,88,0.00,,,-99.99,1.0,HOBO +U30 +Weather +,2015-05-28 08:25:00,
2015-05-28 02:26:00,52.3,48.8,-100.00,SSW,206,3.4,7.4,87,0.00,,,-99.99,1.0,HOBO +U30 +Weather +,2015-05-28 08:26:00,
2015-05-28 02:30:00,51.1,48.2,-100.00,South,177,5.1,7.4,89,0.00,,,-99.99,1.0,HOBO +U30 +Weather +,2015-05-28 08:30:00,
2015-05-28 02:35:00,50.8,48.4,-100.00,SSE,168,5.6,8.5,91,0.00,,,-99.99,1.0,HOBO +U30 +Weather +,2015-05-28 08:35:00,
2015-05-28 02:40:00,50.8,48.4,-100.00,South,191,4.0,6.7,91,0.00,,,-99.99,1.0,HOBO +U30 +Weather +,2015-05-28 08:40:00,
2015-05-28 02:45:00,50.8,48.3,-100.00,SSW,199,4.0,6.3,91,0.00,,,-99.99,1.0,HOBO +U30 +Weather +,2015-05-28 08:45:00,
2015-05-28 02:50:00,50.7,48.2,-100.00,SSW,199,2.9,5.1,90,0.00,,,-99.99,1.0,HOBO +U30 +Weather +,2015-05-28 08:50:00,
2015-05-28 02:55:00,50.5,48.1,-100.00,South,183,3.4,4.5,91,0.00,,,-99.99,1.0,HOBO +U30 +Weather +,2015-05-28 08:55:00,
2015-05-28 03:00:00,50.3,48.1,-100.00,South,175,3.4,4.5,92,0.00,,,-99.99,1.0,HOBO +U30 +Weather +,2015-05-28 09:00:00,
2015-05-28 03:05:00,50.3,48.1,-100.00,South,175,2.9,5.1,92,0.00,,,-99.99,1.0,HOBO +U30 +Weather +,2015-05-28 09:05:00,
2015-05-28 03:10:00,50.3,48.1,-100.00,South,178,4.5,5.6,92,0.00,,,-99.99,1.0,HOBO +U30 +Weather +,2015-05-28 09:10:00,
2015-05-28 03:15:00,50.3,48.1,-100.00,South,170,4.0,5.6,92,0.00,,,-99.99,1.0,HOBO +U30 +Weather +,2015-05-28 09:15:00,
2015-05-28 03:20:00,50.3,48.1,-100.00,SSE,160,3.4,5.1,91,0.00,,,-99.99,1.0,HOBO +U30 +Weather +,2015-05-28 09:20:00,
2015-05-28 03:25:00,50.3,48.0,-100.00,South,170,4.0,5.6,91,0.00,,,-99.99,1.0,HOBO +U30 +Weather +,2015-05-28 09:25:00,
2015-05-28 03:30:00,50.1,47.9,-100.00,South,170,3.4,5.6,92,0.00,,,-99.99,1.0,HOBO +U30 +Weather +,2015-05-28 09:30:00,
2015-05-28 03:35:00,50.0,48.0,-100.00,South,178,3.4,5.1,92,0.00,,,-99.99,1.0,HOBO +U30 +Weather +,2015-05-28 09:35:00,
2015-05-28 03:40:00,50.0,47.9,-100.00,South,174,5.6,7.4,92,0.00,,,-99.99,1.0,HOBO +U30 +Weather +,2015-05-28 09:40:00,
2015-05-28 03:45:00,49.9,47.9,-100.00,South,191,4.5,6.3,92,0.00,,,-99.99,1.0,HOBO +U30 +Weather +,2015-05-28 09:45:00,
2015-05-28 03:50:00,49.8,47.9,-100.00,SSW,201,4.5,6.3,93,0.00,,,-99.99,1.0,HOBO +U30 +Weather +,2015-05-28 09:50:00,
2015-05-28 03:55:00,49.8,47.8,-100.00,SSW,198,4.5,6.7,92,0.00,,,-99.99,1.0,HOBO +U30 +Weather +,2015-05-28 09:55:00,
2015-05-28 04:00:00,49.6,47.6,-100.00,South,180,5.1,7.4,93,0.00,,,-99.99,1.0,HOBO +U30 +Weather +,2015-05-28 10:00:00,
2015-05-28 04:05:00,49.4,47.6,-100.00,South,178,3.4,6.3,93,0.00,,,-99.99,1.0,HOBO +U30 +Weather +,2015-05-28 10:05:00,
2015-05-28 04:10:00,49.5,47.8,-100.00,South,187,3.4,5.6,93,0.00,,,-99.99,1.0,HOBO +U30 +Weather +,2015-05-28 10:10:00,
2015-05-28 04:15:00,49.6,47.8,-100.00,South,190,2.9,5.6,93,0.00,,,-99.99,1.0,HOBO +U30 +Weather +,2015-05-28 10:15:00,
2015-05-28 04:25:00,49.7,47.8,-100.00,SSW,192,2.2,5.6,93,0.00,,,-99.99,1.0,HOBO +U30 +Weather +,2015-05-28 10:25:00,
2015-05-28 04:30:00,49.6,47.8,-100.00,SSW,212,3.4,6.3,93,0.00,,,-99.99,1.0,HOBO +U30 +Weather +,2015-05-28 10:30:00,
2015-05-28 04:40:00,49.7,47.8,-100.00,WSW,254,2.9,6.7,93,0.00,,,-99.99,1.0,HOBO +U30 +Weather +,2015-05-28 10:40:00,
2015-05-28 04:45:00,49.4,47.6,-100.00,West,270,1.8,4.0,93,0.00,,,-99.99,1.0,HOBO +U30 +Weather +,2015-05-28 10:45:00,
2015-05-28 04:50:00,49.7,47.9,-100.00,WSW,246,3.4,6.7,93,0.00,,,-99.99,1.0,HOBO +U30 +Weather +,2015-05-28 10:50:00,
2015-05-28 04:55:00,50.1,48.1,-100.00,SW,220,2.2,4.5,92,0.00,,,-99.99,1.0,HOBO +U30 +Weather +,2015-05-28 10:55:00,
2015-05-28 05:00:00,49.8,47.9,-100.00,SW,226,1.8,4.0,93,0.00,,,-99.99,1.0,HOBO +U30 +Weather +,2015-05-28 11:00:00,
2015-05-28 05:05:00,49.9,47.9,-100.00,WSW,248,2.9,4.5,92,0.00,,,-99.99,1.0,HOBO +U30 +Weather +,2015-05-28 11:05:00,
2015-05-28 05:10:00,49.7,47.8,-100.00,WSW,246,1.1,4.0,92,0.00,,,-99.99,1.0,HOBO +U30 +Weather +,2015-05-28 11:10:00,
2015-05-28 05:15:00,49.6,47.7,-100.00,WSW,251,1.8,3.4,92,0.00,,,-99.99,1.0,HOBO +U30 +Weather +,2015-05-28 11:15:00,
2015-05-28 05:20:00,49.7,47.7,-100.00,WSW,257,2.2,4.5,92,0.00,,,-99.99,2.0,HOBO +U30 +Weather +,2015-05-28 11:20:00,
2015-05-28 05:25:00,49.8,47.8,-100.00,WSW,254,2.9,4.5,92,0.00,,,-99.99,2.0,HOBO +U30 +Weather +,2015-05-28 11:25:00,
2015-05-28 05:30:00,49.9,47.8,-100.00,WSW,237,1.8,4.5,92,0.00,,,-99.99,3.0,HOBO +U30 +Weather +,2015-05-28 11:30:00,
2015-05-28 05:35:00,49.9,47.8,-100.00,SW,236,3.4,5.1,92,0.00,,,-99.99,7.0,HOBO +U30 +Weather +,2015-05-28 11:35:00,
2015-05-28 05:40:00,50.1,47.8,-100.00,SW,229,5.1,9.6,92,0.00,,,-99.99,12.0,HOBO +U30 +Weather +,2015-05-28 11:40:00,
2015-05-28 05:45:00,50.0,47.8,-100.00,SW,220,3.4,6.3,92,0.00,,,-99.99,22.0,HOBO +U30 +Weather +,2015-05-28 11:45:00,
2015-05-28 05:50:00,50.1,47.8,-100.00,SW,215,2.2,5.6,91,0.00,,,-99.99,34.0,HOBO +U30 +Weather +,2015-05-28 11:50:00,
2015-05-28 05:55:00,50.0,47.8,-100.00,SSW,197,2.9,5.1,92,0.00,,,-99.99,47.0,HOBO +U30 +Weather +,2015-05-28 11:55:00,
2015-05-28 06:00:00,50.2,47.8,-100.00,SW,218,4.5,8.5,91,0.00,,,-99.99,39.0,HOBO +U30 +Weather +,2015-05-28 12:00:00,
2015-05-28 06:05:00,50.5,48.0,-100.00,SW,220,4.5,7.8,91,0.00,,,-99.99,39.0,HOBO +U30 +Weather +,2015-05-28 12:05:00,
2015-05-28 06:10:00,50.2,47.7,-100.00,SSW,195,2.9,5.6,91,0.00,,,-99.99,33.0,HOBO +U30 +Weather +,2015-05-28 12:10:00,
2015-05-28 06:15:00,50.0,47.8,-100.00,SSW,194,2.9,5.1,92,0.00,,,-99.99,33.0,HOBO +U30 +Weather +,2015-05-28 12:15:00,
2015-05-28 06:25:00,50.4,47.9,-100.00,SSW,205,1.8,4.5,91,0.00,,,-99.99,48.0,HOBO +U30 +Weather +,2015-05-28 12:25:00,
2015-05-28 06:26:00,49.8,47.9,-100.00,WSW,244,3.4,7.8,93,0.00,,,-99.99,1.0,HOBO +U30 +Weather +,2015-05-28 12:26:00,
2015-05-28 06:30:00,50.3,47.9,-100.00,SSW,195,3.4,5.1,91,0.00,,,-99.99,59.0,HOBO +U30 +Weather +,2015-05-28 12:30:00,
2015-05-28 06:35:00,50.2,47.9,-100.00,South,178,4.5,6.3,91,0.00,,,-99.99,69.0,HOBO +U30 +Weather +,2015-05-28 12:35:00,
2015-05-28 06:40:00,50.3,48.0,-100.00,South,181,4.0,5.6,91,0.00,,,-99.99,76.0,HOBO +U30 +Weather +,2015-05-28 12:40:00,
2015-05-28 06:45:00,50.9,48.4,-100.00,South,184,1.8,4.0,90,0.00,,,-99.99,89.0,HOBO +U30 +Weather +,2015-05-28 12:45:00,
2015-05-28 06:50:00,50.7,48.2,-100.00,South,188,4.0,5.6,91,0.00,,,-99.99,102.0,HOBO +U30 +Weather +,2015-05-28 12:50:00,
2015-05-28 06:55:00,51.5,48.7,-100.00,South,191,4.0,5.6,89,0.00,,,-99.99,238.0,HOBO +U30 +Weather +,2015-05-28 12:55:00,
2015-05-28 07:00:00,52.2,49.3,-100.00,South,181,2.9,5.1,89,0.00,,,-99.99,224.0,HOBO +U30 +Weather +,2015-05-28 13:00:00,
2015-05-28 07:05:00,52.1,48.9,-100.00,SSW,192,3.4,5.1,88,0.00,,,-99.99,222.0,HOBO +U30 +Weather +,2015-05-28 13:05:00,
2015-05-28 07:10:00,53.0,49.6,-100.00,SSW,198,3.4,6.3,88,0.00,,,-99.99,223.0,HOBO +U30 +Weather +,2015-05-28 13:10:00,
2015-05-28 07:15:00,53.0,49.4,-100.00,SSW,202,2.9,5.1,87,0.00,,,-99.99,212.0,HOBO +U30 +Weather +,2015-05-28 13:15:00,
2015-05-28 07:27:00,53.0,49.0,-100.00,SW,230,3.4,6.3,86,0.00,,,-99.99,192.0,HOBO +U30 +Weather +,2015-05-28 13:27:00,
2015-05-28 07:30:00,53.8,49.2,-100.00,SW,233,2.2,4.5,84,0.00,,,-99.99,184.0,HOBO +U30 +Weather +,2015-05-28 13:30:00,
2015-05-28 07:35:00,54.6,49.6,-100.00,West,277,0.7,3.4,83,0.00,,,-99.99,129.0,HOBO +U30 +Weather +,2015-05-28 13:35:00,
2015-05-28 07:40:00,54.6,49.5,-100.00,SW,229,1.1,2.9,82,0.00,,,-99.99,152.0,HOBO +U30 +Weather +,2015-05-28 13:40:00,
2015-05-28 07:45:00,55.1,49.6,-100.00,WSW,247,1.1,3.4,81,0.00,,,-99.99,143.0,HOBO +U30 +Weather +,2015-05-28 13:45:00,
2015-05-28 07:50:00,54.4,48.9,-100.00,WSW,254,3.4,5.1,81,0.00,,,-99.99,162.0,HOBO +U30 +Weather +,2015-05-28 13:50:00,
2015-05-28 07:55:00,54.6,48.6,-100.00,West,268,3.4,6.3,80,0.00,,,-99.99,183.0,HOBO +U30 +Weather +,2015-05-28 13:55:00,
2015-05-28 08:00:00,54.7,48.9,-100.00,West,263,3.4,6.3,80,0.00,,,-99.99,199.0,HOBO +U30 +Weather +,2015-05-28 14:00:00,
2015-05-28 08:05:00,55.3,49.4,-100.00,WSW,241,2.2,5.1,80,0.00,,,-99.99,239.0,HOBO +U30 +Weather +,2015-05-28 14:05:00,
2015-05-28 08:10:00,55.4,49.5,-100.00,SW,219,2.2,5.1,80,0.00,,,-99.99,209.0,HOBO +U30 +Weather +,2015-05-28 14:10:00,
2015-05-28 08:15:00,55.8,49.2,-100.00,SW,233,2.9,5.6,78,0.00,,,-99.99,278.0,HOBO +U30 +Weather +,2015-05-28 14:15:00,
2015-05-28 08:27:00,56.6,49.9,-100.00,SSW,198,2.2,5.1,78,0.00,,,-99.99,293.0,HOBO +U30 +Weather +,2015-05-28 14:27:00,
2015-05-28 08:30:00,56.6,49.2,-100.00,SW,226,6.3,9.6,76,0.00,,,-99.99,386.0,HOBO +U30 +Weather +,2015-05-28 14:30:00,
2015-05-28 08:35:00,57.4,49.4,-100.00,SW,215,5.6,9.6,74,0.00,,,-99.99,474.0,HOBO +U30 +Weather +,2015-05-28 14:35:00,
2015-05-28 08:40:00,57.6,49.0,-100.00,SW,222,5.6,8.5,72,0.00,,,-99.99,486.0,HOBO +U30 +Weather +,2015-05-28 14:40:00,
2015-05-28 08:45:00,56.9,49.0,-100.00,WSW,257,7.4,9.6,74,0.00,,,-99.99,404.0,HOBO +U30 +Weather +,2015-05-28 14:45:00,
2015-05-28 08:50:00,57.5,49.1,-100.00,WSW,240,5.1,7.4,73,0.00,,,-99.99,312.0,HOBO +U30 +Weather +,2015-05-28 14:50:00,
2015-05-28 08:55:00,57.3,48.6,-100.00,WSW,254,6.3,8.9,72,0.00,,,-99.99,296.0,HOBO +U30 +Weather +,2015-05-28 14:55:00,
2015-05-28 09:00:00,57.9,48.6,-100.00,WSW,256,4.0,7.8,71,0.00,,,-99.99,289.0,HOBO +U30 +Weather +,2015-05-28 15:00:00,
2015-05-28 09:05:00,58.2,49.1,-100.00,WSW,239,4.5,7.4,71,0.00,,,-99.99,289.0,HOBO +U30 +Weather +,2015-05-28 15:05:00,
2015-05-28 09:10:00,58.5,49.4,-100.00,SSW,213,4.0,8.9,71,0.00,,,-99.99,298.0,HOBO +U30 +Weather +,2015-05-28 15:10:00,
2015-05-28 09:15:00,58.6,49.5,-100.00,SW,216,4.0,7.4,71,0.00,,,-99.99,308.0,HOBO +U30 +Weather +,2015-05-28 15:15:00,
2015-05-28 09:27:00,58.5,49.5,-100.00,SW,223,4.5,7.8,71,0.00,,,-99.99,303.0,HOBO +U30 +Weather +,2015-05-28 15:27:00,
2015-05-28 09:30:00,58.8,49.9,-100.00,SSW,209,4.0,7.4,72,0.00,,,-99.99,279.0,HOBO +U30 +Weather +,2015-05-28 15:30:00,
2015-05-28 09:35:00,59.9,50.5,-100.00,SSW,199,3.4,6.7,71,0.00,,,-99.99,409.0,HOBO +U30 +Weather +,2015-05-28 15:35:00,
2015-05-28 09:40:00,59.8,50.6,-100.00,SW,230,2.9,5.1,71,0.00,,,-99.99,394.0,HOBO +U30 +Weather +,2015-05-28 15:40:00,
2015-05-28 09:45:00,60.3,51.0,-100.00,SSW,205,2.9,5.6,71,0.00,,,-99.99,443.0,HOBO +U30 +Weather +,2015-05-28 15:45:00,
2015-05-28 09:50:00,60.5,50.5,-100.00,WSW,253,2.2,6.3,69,0.00,,,-99.99,437.0,HOBO +U30 +Weather +,2015-05-28 15:50:00,
2015-05-28 09:55:00,61.7,51.4,-100.00,SW,236,1.8,4.5,69,0.00,,,-99.99,619.0,HOBO +U30 +Weather +,2015-05-28 15:55:00,
2015-05-28 10:00:00,63.1,51.6,-100.00,WSW,246,1.1,5.6,66,0.00,,,-99.99,661.0,HOBO +U30 +Weather +,2015-05-28 16:00:00,
2015-05-28 10:05:00,63.4,51.1,-100.00,SW,218,1.1,4.5,64,0.00,,,-99.99,741.0,HOBO +U30 +Weather +,2015-05-28 16:05:00,
2015-05-28 10:10:00,65.0,51.9,-100.00,SSW,195,2.2,7.4,62,0.00,,,-99.99,756.0,HOBO +U30 +Weather +,2015-05-28 16:10:00,
2015-05-28 10:15:00,64.1,51.7,-100.00,South,180,4.5,6.7,64,0.00,,,-99.99,737.0,HOBO +U30 +Weather +,2015-05-28 16:15:00,
2015-05-28 10:27:00,67.2,52.7,-100.00,SSE,157,1.8,5.1,59,0.00,,,-99.99,769.0,HOBO +U30 +Weather +,2015-05-28 16:27:00,
2015-05-28 10:30:00,66.5,52.1,-100.00,South,183,3.4,7.8,59,0.00,,,-99.99,724.0,HOBO +U30 +Weather +,2015-05-28 16:30:00,
2015-05-28 10:35:00,67.8,53.0,-100.00,SE,139,2.9,5.6,59,0.00,,,-99.99,721.0,HOBO +U30 +Weather +,2015-05-28 16:35:00,
2015-05-28 10:40:00,67.2,52.2,-100.00,SSE,163,4.5,7.4,58,0.00,,,-99.99,748.0,HOBO +U30 +Weather +,2015-05-28 16:40:00,
2015-05-28 10:45:00,67.1,50.5,-100.00,SSW,211,2.9,7.4,55,0.00,,,-99.99,756.0,HOBO +U30 +Weather +,2015-05-28 16:45:00,
2015-05-28 10:50:00,66.3,50.5,-100.00,WSW,253,2.9,6.7,56,0.00,,,-99.99,152.0,HOBO +U30 +Weather +,2015-05-28 16:50:00,
2015-05-28 10:55:00,65.6,50.9,-100.00,East,81,2.2,6.7,59,0.00,,,-99.99,647.0,HOBO +U30 +Weather +,2015-05-28 16:55:00,
2015-05-28 11:00:00,66.2,52.0,-100.00,East,84,3.4,6.3,60,0.00,,,-99.99,276.0,HOBO +U30 +Weather +,2015-05-28 17:00:00,
2015-05-28 11:05:00,66.4,51.7,-100.00,SE,129,4.0,8.5,59,0.00,,,-99.99,942.0,HOBO +U30 +Weather +,2015-05-28 17:05:00,
2015-05-28 11:10:00,65.1,51.6,-100.00,East,90,5.6,7.8,61,0.00,,,-99.99,221.0,HOBO +U30 +Weather +,2015-05-28 17:10:00,
2015-05-28 11:15:00,65.4,51.1,-100.00,East,80,5.1,10.1,59,0.00,,,-99.99,213.0,HOBO +U30 +Weather +,2015-05-28 17:15:00,
2015-05-28 11:27:00,65.0,51.0,-100.00,NE,55,5.6,9.6,60,0.00,,,-99.99,187.0,HOBO +U30 +Weather +,2015-05-28 17:27:00,
2015-05-28 11:30:00,66.7,51.6,-100.00,SE,139,2.2,8.5,58,0.00,,,-99.99,167.0,HOBO +U30 +Weather +,2015-05-28 17:30:00,
2015-05-28 11:35:00,66.3,51.4,-100.00,SSE,147,1.8,7.4,58,0.00,,,-99.99,184.0,HOBO +U30 +Weather +,2015-05-28 17:35:00,
2015-05-28 11:40:00,66.1,49.1,-100.00,SSW,208,6.3,11.9,54,0.00,,,-99.99,213.0,HOBO +U30 +Weather +,2015-05-28 17:40:00,
2015-05-28 11:45:00,66.3,50.5,-100.00,SW,223,2.2,4.0,56,0.00,,,-99.99,254.0,HOBO +U30 +Weather +,2015-05-28 17:45:00,
2015-05-28 11:50:00,66.7,51.3,-100.00,South,184,3.4,7.8,57,0.00,,,-99.99,664.0,HOBO +U30 +Weather +,2015-05-28 17:50:00,
2015-05-28 11:55:00,68.4,51.8,-100.00,South,184,6.7,10.1,55,0.00,,,-99.99,1072.0,HOBO +U30 +Weather +,2015-05-28 17:55:00,
2015-05-28 12:00:00,69.0,52.3,-100.00,SSE,167,6.7,9.6,55,0.00,,,-99.99,1096.0,HOBO +U30 +Weather +,2015-05-28 18:00:00,
2015-05-28 12:05:00,70.2,52.7,-100.00,SSE,163,5.6,8.5,53,0.00,,,-99.99,1069.0,HOBO +U30 +Weather +,2015-05-28 18:05:00,
2015-05-28 12:10:00,69.4,51.4,-100.00,SSW,213,7.4,11.9,52,0.00,,,-99.99,1056.0,HOBO +U30 +Weather +,2015-05-28 18:10:00,
2015-05-28 12:15:00,67.9,50.7,-100.00,WSW,243,4.5,8.9,54,0.00,,,-99.99,268.0,HOBO +U30 +Weather +,2015-05-28 18:15:00,
2015-05-28 12:27:00,65.5,50.2,-100.00,West,260,5.6,8.5,57,0.00,,,-99.99,209.0,HOBO +U30 +Weather +,2015-05-28 18:27:00,
2015-05-28 12:30:00,64.8,50.0,-100.00,SSW,204,6.7,9.6,58,0.00,,,-99.99,244.0,HOBO +U30 +Weather +,2015-05-28 18:30:00,
2015-05-28 12:35:00,65.1,50.7,-100.00,SSW,195,5.6,8.9,59,0.00,,,-99.99,261.0,HOBO +U30 +Weather +,2015-05-28 18:35:00,
2015-05-28 12:40:00,64.7,50.3,-100.00,South,190,6.7,10.1,59,0.00,,,-99.99,304.0,HOBO +U30 +Weather +,2015-05-28 18:40:00,
2015-05-28 12:45:00,65.0,51.0,-100.00,South,181,6.7,10.1,60,0.00,,,-99.99,366.0,HOBO +U30 +Weather +,2015-05-28 18:45:00,
2015-05-28 12:50:00,66.1,50.8,-100.00,South,184,5.1,7.8,57,0.00,,,-99.99,474.0,HOBO +U30 +Weather +,2015-05-28 18:50:00,
2015-05-28 12:55:00,66.1,50.6,-100.00,SE,145,5.1,9.6,57,0.00,,,-99.99,372.0,HOBO +U30 +Weather +,2015-05-28 18:55:00,
2015-05-28 13:00:00,65.3,50.1,-100.00,SE,131,7.8,11.2,57,0.00,,,-99.99,427.0,HOBO +U30 +Weather +,2015-05-28 19:00:00,
2015-05-28 13:05:00,66.2,49.9,-100.00,SE,126,6.7,10.7,55,0.00,,,-99.99,304.0,HOBO +U30 +Weather +,2015-05-28 19:05:00,
2015-05-28 13:10:00,66.3,49.6,-100.00,SE,145,5.1,8.5,54,0.00,,,-99.99,273.0,HOBO +U30 +Weather +,2015-05-28 19:10:00,
2015-05-28 13:15:00,64.7,50.7,-100.00,South,181,9.6,16.3,60,0.00,,,-99.99,231.0,HOBO +U30 +Weather +,2015-05-28 19:15:00,
2015-05-28 13:28:00,63.9,50.2,-100.00,SW,223,10.1,19.2,61,0.00,,,-99.99,152.0,HOBO +U30 +Weather +,2015-05-28 19:28:00,
2015-05-28 13:30:00,61.1,53.2,-100.00,SSW,201,5.1,14.1,75,0.00,,,-99.99,151.0,HOBO +U30 +Weather +,2015-05-28 19:30:00,
2015-05-28 13:35:00,60.0,52.0,-100.00,SW,236,8.5,17.0,74,0.00,,,-99.99,198.0,HOBO +U30 +Weather +,2015-05-28 19:35:00,
2015-05-28 13:40:00,60.2,52.9,-100.00,WSW,253,13.0,20.8,76,0.14,,,-99.99,231.0,HOBO +U30 +Weather +,2015-05-28 19:40:00,
2015-05-28 13:45:00,60.0,53.1,-100.00,West,281,10.1,17.4,77,0.00,,,-99.99,124.0,HOBO +U30 +Weather +,2015-05-28 19:45:00,
2015-05-28 13:50:00,59.4,50.1,-100.00,WNW,289,13.0,20.4,71,0.00,,,-99.99,73.0,HOBO +U30 +Weather +,2015-05-28 19:50:00,
2015-05-28 13:55:00,58.1,50.8,-100.00,WNW,299,8.5,15.9,76,0.00,,,-99.99,47.0,HOBO +U30 +Weather +,2015-05-28 19:55:00,
2015-05-28 14:00:00,57.9,49.8,-100.00,NW,307,7.4,16.3,74,0.00,,,-99.99,46.0,HOBO +U30 +Weather +,2015-05-28 20:00:00,
2015-05-28 14:05:00,56.3,49.3,-100.00,NNW,327,7.8,14.5,77,0.00,,,-99.99,43.0,HOBO +U30 +Weather +,2015-05-28 20:05:00,
2015-05-28 14:10:00,55.3,49.0,-100.00,North,0,10.7,17.0,79,0.14,,,-99.99,43.0,HOBO +U30 +Weather +,2015-05-28 20:10:00,
2015-05-28 14:15:00,55.4,49.6,-100.00,North,355,10.1,17.0,80,0.14,,,-99.99,53.0,HOBO +U30 +Weather +,2015-05-28 20:15:00,
2015-05-28 14:27:00,55.2,49.9,-100.00,North,4,11.9,19.2,82,0.14,,,-99.99,63.0,HOBO +U30 +Weather +,2015-05-28 20:27:00,
2015-05-28 14:30:00,56.2,51.5,-100.00,NNE,28,10.1,14.1,84,0.00,,,-99.99,53.0,HOBO +U30 +Weather +,2015-05-28 20:30:00,
2015-05-28 14:35:00,55.9,51.6,-100.00,NE,39,9.6,14.1,85,0.00,,,-99.99,58.0,HOBO +U30 +Weather +,2015-05-28 20:35:00,
2015-05-28 14:40:00,56.1,52.1,-100.00,NE,46,10.7,15.9,86,0.00,,,-99.99,62.0,HOBO +U30 +Weather +,2015-05-28 20:40:00,
2015-05-28 14:45:00,55.4,51.1,-100.00,NE,51,13.0,17.0,85,0.14,,,-99.99,76.0,HOBO +U30 +Weather +,2015-05-28 20:45:00,
2015-05-28 14:50:00,55.3,50.5,-100.00,ENE,58,11.2,15.2,83,0.00,,,-99.99,91.0,HOBO +U30 +Weather +,2015-05-28 20:50:00,
2015-05-28 14:55:00,55.7,50.3,-100.00,ENE,67,9.6,14.1,81,0.00,,,-99.99,114.0,HOBO +U30 +Weather +,2015-05-28 20:55:00,
2015-05-28 15:00:00,56.6,49.9,-100.00,ENE,77,7.4,11.9,78,0.00,,,-99.99,146.0,HOBO +U30 +Weather +,2015-05-28 21:00:00,
2015-05-28 15:05:00,57.6,49.4,-100.00,East,93,7.4,11.2,74,0.14,,,-99.99,181.0,HOBO +U30 +Weather +,2015-05-28 21:05:00,
2015-05-28 15:10:00,58.1,49.7,-100.00,East,80,6.3,10.7,73,0.00,,,-99.99,202.0,HOBO +U30 +Weather +,2015-05-28 21:10:00,
2015-05-28 15:15:00,58.2,48.8,-100.00,East,84,6.3,8.9,70,0.00,,,-99.99,193.0,HOBO +U30 +Weather +,2015-05-28 21:15:00,
2015-05-28 15:25:00,59.3,49.4,-100.00,ENE,67,3.4,7.8,69,0.00,,,-99.99,218.0,HOBO +U30 +Weather +,2015-05-28 21:25:00,
2015-05-28 15:26:00,58.6,48.2,-100.00,East,94,4.5,6.7,68,0.00,,,-99.99,194.0,HOBO +U30 +Weather +,2015-05-28 21:26:00,
2015-05-28 15:30:00,58.4,50.9,-100.00,SSW,195,3.4,6.3,76,0.14,,,-99.99,256.0,HOBO +U30 +Weather +,2015-05-28 21:30:00,
2015-05-28 15:35:00,58.5,51.8,-100.00,SSW,211,4.5,6.7,78,0.00,,,-99.99,329.0,HOBO +U30 +Weather +,2015-05-28 21:35:00,
2015-05-28 15:40:00,58.4,52.0,-100.00,WSW,246,7.8,13.0,79,0.00,,,-99.99,427.0,HOBO +U30 +Weather +,2015-05-28 21:40:00,
2015-05-28 15:45:00,58.8,53.1,-100.00,WSW,243,10.7,16.3,81,0.00,,,-99.99,528.0,HOBO +U30 +Weather +,2015-05-28 21:45:00,
2015-05-28 15:50:00,60.3,53.8,-100.00,SW,234,6.3,10.1,79,0.00,,,-99.99,606.0,HOBO +U30 +Weather +,2015-05-28 21:50:00,
2015-05-28 15:55:00,60.5,53.3,-100.00,WSW,243,7.8,13.4,77,0.00,,,-99.99,608.0,HOBO +U30 +Weather +,2015-05-28 21:55:00,
2015-05-28 16:00:00,60.9,53.1,-100.00,WSW,248,9.6,15.9,75,0.00,,,-99.99,676.0,HOBO +U30 +Weather +,2015-05-28 22:00:00,
2015-05-28 16:05:00,60.7,51.8,-100.00,WSW,248,10.7,18.1,72,0.00,,,-99.99,607.0,HOBO +U30 +Weather +,2015-05-28 22:05:00,
2015-05-28 16:10:00,61.1,52.6,-100.00,SW,234,13.0,18.1,73,0.00,,,-99.99,654.0,HOBO +U30 +Weather +,2015-05-28 22:10:00,
2015-05-28 16:15:00,61.6,53.0,-100.00,WSW,239,9.6,18.1,73,0.00,,,-99.99,748.0,HOBO +U30 +Weather +,2015-05-28 22:15:00,
2015-05-28 16:27:00,62.9,53.2,-100.00,WSW,247,6.7,13.0,70,0.00,,,-99.99,761.0,HOBO +U30 +Weather +,2015-05-28 22:27:00,
2015-05-28 16:30:00,61.2,51.6,-100.00,WSW,247,11.2,20.4,70,0.00,,,-99.99,644.0,HOBO +U30 +Weather +,2015-05-28 22:30:00,
2015-05-28 16:35:00,61.0,52.3,-100.00,WSW,241,13.0,18.1,73,0.00,,,-99.99,779.0,HOBO +U30 +Weather +,2015-05-28 22:35:00,
2015-05-28 16:40:00,62.3,53.3,-100.00,SW,229,10.1,15.9,72,0.00,,,-99.99,767.0,HOBO +U30 +Weather +,2015-05-28 22:40:00,
2015-05-28 16:45:00,61.9,53.1,-100.00,SW,236,11.9,19.2,72,0.00,,,-99.99,738.0,HOBO +U30 +Weather +,2015-05-28 22:45:00,
2015-05-28 16:50:00,62.5,52.8,-100.00,SW,230,11.2,19.7,70,0.00,,,-99.99,684.0,HOBO +U30 +Weather +,2015-05-28 22:50:00,
2015-05-28 16:55:00,63.6,52.6,-100.00,SW,223,10.7,17.0,67,0.00,,,-99.99,661.0,HOBO +U30 +Weather +,2015-05-28 22:55:00,
2015-05-28 17:00:00,64.4,53.1,-100.00,SW,232,8.9,14.1,66,0.00,,,-99.99,732.0,HOBO +U30 +Weather +,2015-05-28 23:00:00,
2015-05-28 17:05:00,63.1,52.5,-100.00,SW,232,11.9,18.1,68,0.00,,,-99.99,373.0,HOBO +U30 +Weather +,2015-05-28 23:05:00,
2015-05-28 17:10:00,63.3,52.6,-100.00,SW,229,10.1,17.4,67,0.00,,,-99.99,362.0,HOBO +U30 +Weather +,2015-05-28 23:10:00,
2015-05-28 17:15:00,62.8,51.7,-100.00,WSW,237,12.3,18.1,67,0.00,,,-99.99,243.0,HOBO +U30 +Weather +,2015-05-28 23:15:00,
2015-05-28 17:27:00,62.8,52.3,-100.00,West,263,8.5,16.3,68,0.00,,,-99.99,143.0,HOBO +U30 +Weather +,2015-05-28 23:27:00,
2015-05-28 17:30:00,59.0,51.0,-100.00,West,275,8.5,16.3,74,0.14,,,-99.99,133.0,HOBO +U30 +Weather +,2015-05-28 23:30:00,
2015-05-28 17:35:00,59.9,52.9,-100.00,West,281,7.8,13.4,77,0.00,,,-99.99,109.0,HOBO +U30 +Weather +,2015-05-28 23:35:00,
2015-05-28 17:40:00,60.1,53.3,-100.00,West,277,4.5,8.9,78,0.00,,,-99.99,73.0,HOBO +U30 +Weather +,2015-05-28 23:40:00,
2015-05-28 17:45:00,60.3,50.8,-100.00,WNW,298,8.5,18.6,71,0.00,,,-99.99,63.0,HOBO +U30 +Weather +,2015-05-28 23:45:00,
2015-05-28 17:50:00,59.7,51.3,-100.00,NW,309,7.4,14.5,73,0.00,,,-99.99,68.0,HOBO +U30 +Weather +,2015-05-28 23:50:00,
2015-05-28 17:55:00,59.5,51.1,-100.00,NW,316,7.8,13.4,73,0.00,,,-99.99,52.0,HOBO +U30 +Weather +,2015-05-28 23:55:00,
2015-05-28 18:00:00,59.5,51.0,-100.00,NW,312,9.6,16.3,73,0.00,,,-99.99,33.0,HOBO +U30 +Weather +,2015-05-29 00:00:00,
2015-05-28 18:05:00,59.1,50.7,-100.00,NW,323,8.5,14.1,73,0.00,,,-99.99,23.0,HOBO +U30 +Weather +,2015-05-29 00:05:00,
2015-05-28 18:10:00,58.6,50.5,-100.00,NW,314,7.8,13.4,74,0.00,,,-99.99,19.0,HOBO +U30 +Weather +,2015-05-29 00:10:00,
2015-05-28 18:15:00,58.4,50.8,-100.00,NW,307,7.4,13.4,75,0.00,,,-99.99,22.0,HOBO +U30 +Weather +,2015-05-29 00:15:00,
2015-05-28 18:27:00,58.1,51.0,-100.00,NW,321,5.1,10.1,77,0.00,,,-99.99,31.0,HOBO +U30 +Weather +,2015-05-29 00:27:00,
2015-05-28 18:30:00,57.6,51.7,-100.00,NW,306,2.9,7.8,80,0.00,,,-99.99,53.0,HOBO +U30 +Weather +,2015-05-29 00:30:00,
2015-05-28 18:35:00,57.4,51.6,-100.00,NW,316,3.4,8.9,80,0.00,,,-99.99,51.0,HOBO +U30 +Weather +,2015-05-29 00:35:00,
2015-05-28 18:40:00,57.3,51.8,-100.00,NW,309,6.3,10.7,81,0.00,,,-99.99,61.0,HOBO +U30 +Weather +,2015-05-29 00:40:00,
2015-05-28 18:45:00,57.5,51.8,-100.00,NW,312,6.3,13.0,81,0.00,,,-99.99,72.0,HOBO +U30 +Weather +,2015-05-29 00:45:00,
2015-05-28 18:50:00,57.4,51.7,-100.00,NW,326,4.5,10.1,81,0.00,,,-99.99,107.0,HOBO +U30 +Weather +,2015-05-29 00:50:00,
2015-05-28 18:55:00,57.3,51.9,-100.00,WNW,300,4.5,7.8,81,0.00,,,-99.99,129.0,HOBO +U30 +Weather +,2015-05-29 00:55:00,
2015-05-28 19:00:00,57.3,52.3,-100.00,WNW,302,5.1,9.6,83,0.14,,,-99.99,118.0,HOBO +U30 +Weather +,2015-05-29 01:00:00,
2015-05-28 19:05:00,57.3,52.8,-100.00,WNW,292,6.3,10.7,84,0.00,,,-99.99,108.0,HOBO +U30 +Weather +,2015-05-29 01:05:00,
2015-05-28 19:10:00,57.4,53.0,-100.00,WNW,288,5.6,10.1,84,0.00,,,-99.99,104.0,HOBO +U30 +Weather +,2015-05-29 01:10:00,
2015-05-28 19:15:00,57.6,53.0,-100.00,WNW,284,6.3,10.7,84,0.00,,,-99.99,78.0,HOBO +U30 +Weather +,2015-05-29 01:15:00,
2015-05-28 19:27:00,57.6,52.9,-100.00,WNW,291,6.7,10.7,84,0.00,,,-99.99,54.0,HOBO +U30 +Weather +,2015-05-29 01:27:00,